Location: Ravensburg
(47.7866°N, 9.6124°E)
Time: 00:33:07
(UTC+01:00)

STRAND 1 - Visible Passes

Search period start: 13 March 2026 00:00
Search period end: 23 March 2026 00:00
Orbit: 762 x 775 km, 98.4° (Epoch: 12 March)

Date Brightness Start Highest point End Pass type
(mag) Time Alt. Az. Time Alt. Az. Time Alt. Az.
13 Mar ? 03:57:02 10° ESE 04:00:49 21° ENE 04:04:37 10° NNE visible
13 Mar ? 05:34:23 10° S 05:39:27 63° WSW 05:44:32 10° NNW visible
13 Mar ? 19:19:31 10° N 19:24:07 35° WNW 19:28:41 10° SW visible
14 Mar ? 03:23:43 10° ENE 03:25:24 12° NE 03:27:05 10° NNE visible
14 Mar ? 04:58:28 10° SSE 05:03:31 66° ENE 05:08:35 10° N visible
14 Mar ? 20:24:36 10° NNW 20:26:30 12° NW 20:28:23 10° WNW visible
15 Mar ? 04:23:13 10° SE 04:27:46 34° ENE 04:32:20 10° N visible
15 Mar ? 06:02:05 10° SSW 06:06:47 36° W 06:11:29 10° NNW visible
15 Mar ? 19:47:13 10° N 19:51:04 22° WNW 19:54:54 10° WSW visible
16 Mar ? 03:48:46 10° E 03:52:12 19° ENE 03:55:38 10° NNE visible
16 Mar ? 05:25:36 10° S 05:30:42 74° WSW 05:35:50 10° NNW visible
16 Mar ? 19:10:41 10° N 19:15:27 41° WNW 19:20:10 10° SW visible
17 Mar ? 04:49:50 10° SSE 04:54:49 56° ENE 04:59:48 10° N visible
17 Mar ? 20:15:21 10° NNW 20:17:54 14° NW 20:20:27 10° W visible
18 Mar ? 04:14:45 10° ESE 04:19:06 29° ENE 04:23:27 10° N visible
18 Mar ? 05:53:09 10° S 05:58:00 43° W 06:02:51 10° NNW visible
18 Mar ? 19:38:18 10° N 19:42:25 26° WNW 19:46:31 10° WSW visible
19 Mar ? 03:40:34 10° E 03:43:35 16° ENE 03:46:36 10° NNE visible
19 Mar ? 05:16:51 10° SSE 05:21:57 87° WSW 05:27:05 10° NNW visible
19 Mar ? 19:01:52 10° N 19:06:45 48° WNW 19:11:36 10° SW visible
20 Mar ? 04:41:15 10° SE 04:46:07 47° ENE 04:50:59 10° N visible
20 Mar ? 20:06:14 10° NNW 20:09:16 16° WNW 20:12:20 10° W visible
21 Mar ? 04:06:21 10° ESE 04:10:26 25° ENE 04:14:33 10° N visible
21 Mar ? 05:44:16 10° S 05:49:12 51° W 05:54:11 10° NNW visible
21 Mar ? 19:29:23 10° N 19:33:45 30° WNW 19:38:05 10° WSW visible
22 Mar ? 03:32:28 10° E 03:34:58 14° NE 03:37:27 10° NNE visible
22 Mar ? 05:08:07 10° SSE 05:13:13 80° ENE 05:18:20 10° NNW visible
